Погода в Вязьме

Погода в Вязьме : погода сейчас, прогноз погоды и архив. Всё, что Вы хотите узнать о погоде в Вязьме!

Поиск расширенной информации на нашем сайте:

Другие новости

Новости СМИ2

Главная страница сайта

Новости сайта

02.10.2013

Напоминаем, что на нашем новом сайте вы можете получить высокодетализированные прогнозы погоды по пунктам России, СНГ и мира (включающие важные для авиации метеовеличины, такие как направление и скорость ветра, видимость, явления погоды, количество и форма облачности, нижняя и верхняя граница облачности), а также ознакомиться с разнообразными материалами по авиационной метеорологии и подборкой полезных ссылок на эту тему.

Сайт Метеоцентр.Азия посвящён разработке технологий оптимизации авиаметеорологического обслуживания, включая проектирование и перспективное создание нескольких автоматизированных авиаметеорологических систем:
- система выпуска высокодетальных прогностических карт явлений погоды для нижнего воздушного пространства по России и ближнему зарубежью;
- система верификации прогнозов TAF (выпускаемых синоптиками официальных АМСГ РФ и ближнего зарубежья) и AUTOTAF (выпускаемых сайтом Метеоцентр.Азия) - выявление ошибок, онлайн-сопоставление с фактической погодой METAR, автоматическое внесение коррективов в прогнозы при резком отклонении фактической погоды от прогноза, подсчёт оправдываемости прогнозов по элементам и в целом;
- система обработки, анализа и отображения авиаметеорологической информации для применения провайдерами метеорологической информации.


Погода в Вязьме - сегодня

Время (UTC), дата Ветер
(°,м/с) 
Видим.   Явления Облачность Т
(°С)
Тd
(°С)
f(%) Тe
(°С)
Pmin
(гПа)
dP
(гПа)
Po
(мм)
O2
(г/м3)
Тmin Tmax R s Состояние
почвы
03 21.02.17 220 (ЮЗ) 6-10{11}  4000 м  слаб. снег  10/8 330 м средняя 
[Frnb|As op]
+0.7 +0.1 96 -3  990.1  -3  720  289  +0.4       
06 21.02.17 220 (ЮЗ) 5{12}  4000 м  слаб. снег  10/8 330 м средняя 
[Frnb|As op]
+0.9 -0.1 93 -2  988.1  -1.8  719  289  +0.4    30  неравномерный
мокрый или
старый снег
100% 
09 21.02.17 220 (ЮЗ) 5{11}  4000 м  слаб. снег  10/10 300 м 
[Ns]
+0.9 +0.2 95 -2  986.9  -1.1  718  288           
12 21.02.17 220 (ЮЗ) 5{10}  4000 м  дымка{снег}  10/10 330 м 
[St]
+1.4 +0.5 94 -1  985.7  -1.1  717  287           
15 21.02.17 230 (ЮЗ) 4000 м  слаб. дождь{снег}  10/8 270 м средняя 
[Frnb|As op]
+1 +0.7 98 -1  986.2  0.4  717  288         
18 21.02.17 280 (З) 4000 м  слаб. морось{снег, дождь}  10/10 270 м 
[St]
+1.5 +1 96 988  1.8  719  288    +1.6     
21 21.02.17 280 (З) 4000 м  дымка{морось}  8/8 450 м 
[Sc]
+1 +0.6 97 +2  989.3  1.2  720  289           
00 22.02.17 тихо ()   4000 м  дымка{морось}  9/9 400 м 
[Sc]
+0.8 +0.6 99 +1  990.8  1.4  721  289           
03 22.02.17 360 (С) 4000 м  слаб. снег  10/8 210 м средняя 
[Frnb|As op]
+0.2 -0 99 -2  992.6  1.7  722  291  +0.2    0.3     
06 22.02.17 020 (С) 10 км  {снег}  10/8 420 м средняя 
[Sc|Ac und]
-1.7 -3.1 90 -4  996.2  3.3  724  294  -1.7    0.8  29  неравномерный
мокрый или
старый снег
100% 
09 22.02.17 360 (С) 10 км  {ливн. осадки}  10/10 420 м 
[Sc]
-3.4 -5.5 85 -7  998.7  2.3  726  297           
12 22.02.17 350 (С) 10 км  {ливн. осадки}  10/10 540 м 
[Sc]
-3.6 -7.3 75 -5  999.6  0.8  727  297           
15 22.02.17 тихо ()   10 км    10/10 630 м 
[Sc]
-4.7 -8.6 74 -5  1000.1  0.3  727  299      0.8     
18 22.02.17 130 (ЮВ) 10 км    10/10 500 м 
[Sc]
-4.5 -7.4 80 -4  998.8  -1.2  726  298    -1.7  0.0     
21 22.02.17 160 (Ю) 10 км    10/10 450 м 
[Sc]
-3.8 -5.4 89 -6  996.2  -2.4  724  296           
00 23.02.17 160 (Ю) 4000 м  дымка  10/10 360 м 
[Sc]
-2.8 -3.6 94 -5  992.9  -3.1  722  294           
03 23.02.17 150 (ЮВ) 4000 м  дымка  10/10 400 м 
[Sc]
-2.4 -2.9 96 -4  989.6  -3.1  719  293  -4.8         
06 23.02.17 180 (Ю) 4000 м  слаб. снег  10/8 240 м средняя 
[Frnb|As op]
-1.4 -1.6 99 -2  987.8  -1.6  718  291  -4.5    0.3  28  неравномерный
мокрый или
старый снег
100% 
09 23.02.17 240 (ЮЗ) 4000 м  дымка{снег}  10/10 330 м 
[St]
+0.6 -0.4 93 986.9  -0.7  718  289           
12 23.02.17 250 (З) 10 км  {снег}  10/10 480 м 
[Sc]
+1.5 -0.6 86 987.1  0.4  718  288           
15 23.02.17 230 (ЮЗ) 10 км  {ливн. осадки}  8/4 600 м средняя 
[Sc|Ac trans]
+1.3 -0.3 89 987.9  0.7  719  288         
18 23.02.17 240 (ЮЗ) 4000 м  дымка{ливн. осадки}  10/10 360 м 
[Sc]
+1.2 +0.3 94 -1  989  1.1  719  288    +2.2  0.8     
21 23.02.17 250 (З) 4000 м  дымка  10/10 400 м 
[Sc]
+1.4 +0.2 92 -1  990.9  1.8  721  289           
00 24.02.17 230 (ЮЗ) 4000 м  дымка  10/10 480 м 
[Sc]
+1.2 +0.2 93 -1  991.9  0.9  721  289           
03 24.02.17 220 (ЮЗ) 4000 м  дымка  10/10 420 м 
[Sc]
+1.1 +0.1 93 991.8  0.1  721  289  +0.8         
Время (UTC), дата Ветер
(°,м/с) 
Видим.   Явления Облачность Т
(°С)
Тd
(°С)
f(%) Тe
(°С)
Pmin
(гПа)
dP
(гПа)
Po
(мм)
O2
(г/м3)
Тmin Tmax R s Состояние
почвы

Для получения пояснительной информации подведите курсор к названию столбца.

ПОГОДА в Вязьме - архив

Всё, что Вы хотите узнать о погоде в Вязьме - удобно и подробно!

Выберите нужную дату (начиная с 1 января 2015* года) и нажмите кнопку "Найти".
Будут отображены архивные сводки погоды по пункту Вязьма, начиная с указанной даты.


Отображать данные в формате CSV (для использования в таблицах Excel)


Внимание! Наш архив погоды предназначен исключительно для личного некоммерческого использования в познавательных целях. Если Вам необходимы официальные справки о состоянии погоды (для производственных, юридических, коммерческих и т.п. целей), обращайтесь в органы Росгидромета.

*Примечание: данная дата относится к архиву по метеостанциям СССР (Россия, СНГ, Балтия).
Архив по метеостанциям Зарубежной Европы и Азии (кроме Китая) хранится 10 дней, по другим регионам земного шара (Китай, Африка, Америка, Австралия, Океания) - 1 день.

Вязьма - район местоположения метеостанции


Название, широта, долгота, высота метеостанции:
Вязьма 55.2°ш. 34.4°д. 251 м над ур. моря [Российская Федерация]

Дополнительная информация

В oтличие oт бoльшинства пoгoдных сайтoв мы публикуем пoдрoбную метеoинфoрмацию в детальнoм прoфессиoнальнoм фoрмате.

Характеристики температуры и влажнoсти вoздуха измеряются на высoте 2 м в тени вдали oт зданий и деревьев.
Скoрoсть ветра измеряется на высoте 10 м (на урoвне рoста челoвека скoрoсть ветра ниже в 1.5-2 раза). Если метеoстанция нахoдится в гoрoде или в лесу, тo скoрoсть ветра занижена на 2-4 м/с пo сравнению с oткрытым местoм. Скoрoсть ветра над акватoриями крупных рек и oзёр, а также на вершинах хoлмoв на 2-5 м/с выше, чем в oбычных услoвиях.
Атмoсфернoе давление в разных тoчках местнoсти мoжет значительнo oтличаться oт давления на метеoстанции, в зависимoсти oт услoвий рельефа (при пoдъёме на 10 м давление пoнижается примернo на 1 мм рт.ст.).